Time,TemperatureF,DewpointF,PressureIn,WindDirection,WindDirectionDegrees,WindSpeedMPH,WindSpeedGustMPH,Humidity,HourlyPrecipIn,Conditions,Clouds,dailyrainin,SoftwareType,DateUTC
2013-05-05 00:02:00,64.0,34.0,29.69,SSE,157,12.0,22.0,32,0.00,,,0.00,,2013-05-05 04:02:00,
2013-05-05 00:12:00,64.0,34.0,29.69,SSE,157,12.0,22.0,32,0.00,,,0.00,,2013-05-05 04:12:00,
2013-05-05 00:23:00,64.0,34.0,29.69,SE,135,14.0,22.0,33,0.00,,,0.00,,2013-05-05 04:23:00,
2013-05-05 00:32:00,64.0,34.0,29.70,SE,135,11.0,17.0,33,0.00,,,0.00,,2013-05-05 04:32:00,
2013-05-05 00:43:00,64.0,34.0,29.70,SE,135,11.0,17.0,33,0.00,,,0.00,,2013-05-05 04:43:00,
2013-05-05 00:53:00,64.0,34.0,29.69,SE,135,11.0,18.0,33,0.00,,,0.00,,2013-05-05 04:53:00,
2013-05-05 01:02:00,63.0,33.0,29.70,SSE,157,13.0,20.0,33,0.00,,,0.00,,2013-05-05 05:02:00,
2013-05-05 01:12:00,63.0,33.0,29.70,SSE,157,13.0,20.0,33,0.00,,,0.00,,2013-05-05 05:12:00,
2013-05-05 01:21:00,62.0,34.0,29.69,SE,135,11.0,16.0,35,0.00,,,0.00,,2013-05-05 05:21:00,
2013-05-05 01:32:00,62.0,35.0,29.69,SE,135,10.0,14.0,36,0.00,,,0.00,,2013-05-05 05:32:00,
2013-05-05 01:42:00,62.0,35.0,29.69,SE,135,10.0,14.0,36,0.00,,,0.00,,2013-05-05 05:42:00,
2013-05-05 01:52:00,62.0,34.0,29.70,SSE,157,13.0,17.0,35,0.00,,,0.00,,2013-05-05 05:52:00,
2013-05-05 02:01:00,61.0,34.0,29.70,SE,135,6.0,15.0,36,0.00,,,0.00,,2013-05-05 06:01:00,
2013-05-05 02:12:00,61.0,34.0,29.70,SE,135,6.0,15.0,36,0.00,,,0.00,,2013-05-05 06:12:00,
2013-05-05 02:21:00,59.0,33.0,29.70,SE,135,9.0,15.0,38,0.00,,,0.00,,2013-05-05 06:21:00,
2013-05-05 02:32:00,58.0,33.0,29.70,SE,135,8.0,12.0,39,0.00,,,0.00,,2013-05-05 06:32:00,
2013-05-05 02:42:00,58.0,33.0,29.70,SE,135,8.0,12.0,39,0.00,,,0.00,,2013-05-05 06:42:00,
2013-05-05 02:52:00,58.0,33.0,29.70,SE,135,10.0,15.0,39,0.00,,,0.00,,2013-05-05 06:52:00,
2013-05-05 03:01:00,59.0,33.0,29.70,SE,135,10.0,17.0,38,0.00,,,0.00,,2013-05-05 07:01:00,
2013-05-05 03:11:00,59.0,33.0,29.70,SE,135,10.0,17.0,38,0.00,,,0.00,,2013-05-05 07:11:00,
2013-05-05 03:22:00,58.0,32.0,29.70,East,90,9.0,16.0,37,0.00,,,0.00,,2013-05-05 07:22:00,
2013-05-05 03:32:00,58.0,33.0,29.69,SSE,157,12.0,17.0,38,0.00,,,0.00,,2013-05-05 07:32:00,
2013-05-05 03:42:00,58.0,33.0,29.69,SSE,157,12.0,17.0,38,0.00,,,0.00,,2013-05-05 07:42:00,
2013-05-05 03:52:00,57.0,32.0,29.70,SSE,157,9.0,20.0,39,0.00,,,0.00,,2013-05-05 07:52:00,
2013-05-05 04:02:00,57.0,34.0,29.69,ESE,112,15.0,20.0,41,0.00,,,0.00,,2013-05-05 08:02:00,
2013-05-05 04:11:00,57.0,34.0,29.69,ESE,112,15.0,20.0,41,0.00,,,0.00,,2013-05-05 08:11:00,
2013-05-05 04:21:00,56.0,33.0,29.69,SE,135,14.0,21.0,41,0.00,,,0.00,,2013-05-05 08:21:00,
2013-05-05 04:32:00,56.0,33.0,29.69,SE,135,11.0,21.0,41,0.00,,,0.00,,2013-05-05 08:32:00,
2013-05-05 04:42:00,56.0,33.0,29.69,SE,135,11.0,21.0,41,0.00,,,0.00,,2013-05-05 08:42:00,
2013-05-05 04:53:00,55.0,33.0,29.70,ESE,112,8.0,17.0,44,0.00,,,0.00,,2013-05-05 08:53:00,
2013-05-05 05:01:00,55.0,35.0,29.69,SE,135,11.0,17.0,46,0.00,,,0.00,,2013-05-05 09:01:00,
2013-05-05 05:11:00,55.0,35.0,29.69,SE,135,11.0,17.0,46,0.00,,,0.00,,2013-05-05 09:11:00,
2013-05-05 05:21:00,54.0,35.0,29.69,ESE,112,10.0,20.0,49,0.00,,,0.00,,2013-05-05 09:21:00,
2013-05-05 05:33:00,54.0,36.0,29.69,SSE,157,10.0,19.0,51,0.00,,,0.00,,2013-05-05 09:33:00,
2013-05-05 05:42:00,54.0,36.0,29.69,SSE,157,10.0,19.0,51,0.00,,,0.00,,2013-05-05 09:42:00,
2013-05-05 05:52:00,54.0,36.0,29.69,SSE,157,11.0,19.0,51,0.00,,,0.00,,2013-05-05 09:52:00,
2013-05-05 06:03:00,54.0,37.0,29.70,SE,135,10.0,19.0,52,0.00,,,0.00,,2013-05-05 10:03:00,
2013-05-05 06:12:00,54.0,37.0,29.70,SE,135,10.0,19.0,52,0.00,,,0.00,,2013-05-05 10:12:00,
2013-05-05 06:22:00,53.0,37.0,29.70,ESE,112,10.0,15.0,55,0.00,,,0.00,,2013-05-05 10:22:00,
2013-05-05 06:32:00,53.0,38.0,29.71,ESE,112,12.0,17.0,56,0.00,,,0.00,,2013-05-05 10:32:00,
2013-05-05 06:42:00,53.0,38.0,29.71,ESE,112,12.0,17.0,56,0.00,,,0.00,,2013-05-05 10:42:00,
2013-05-05 06:53:00,53.0,38.0,29.70,ESE,112,10.0,19.0,56,0.00,,,0.00,,2013-05-05 10:53:00,
2013-05-05 07:01:00,55.0,38.0,29.70,SSE,157,10.0,16.0,53,0.00,,,0.00,,2013-05-05 11:01:00,
2013-05-05 07:12:00,55.0,38.0,29.70,SSE,157,10.0,16.0,53,0.00,,,0.00,,2013-05-05 11:12:00,
2013-05-05 07:22:00,55.0,37.0,29.71,SSE,157,5.0,16.0,51,0.00,,,0.00,,2013-05-05 11:22:00,
2013-05-05 07:32:00,56.0,38.0,29.71,ESE,112,4.0,12.0,51,0.00,,,0.00,,2013-05-05 11:32:00,
2013-05-05 07:42:00,56.0,38.0,29.71,ESE,112,4.0,12.0,51,0.00,,,0.00,,2013-05-05 11:42:00,
2013-05-05 07:52:00,57.0,39.0,29.71,ENE,67,5.0,10.0,51,0.00,,,0.00,,2013-05-05 11:52:00,
2013-05-05 08:02:00,57.0,38.0,29.72,East,90,4.0,11.0,49,0.00,,,0.00,,2013-05-05 12:02:00,
2013-05-05 08:11:00,57.0,38.0,29.72,East,90,4.0,11.0,49,0.00,,,0.00,,2013-05-05 12:11:00,
2013-05-05 08:21:00,57.0,38.0,29.72,SE,135,9.0,15.0,49,0.00,,,0.00,,2013-05-05 12:21:00,
2013-05-05 08:32:00,58.0,39.0,29.72,East,90,6.0,12.0,49,0.00,,,0.00,,2013-05-05 12:32:00,
2013-05-05 08:42:00,58.0,39.0,29.72,East,90,6.0,12.0,49,0.00,,,0.00,,2013-05-05 12:42:00,
2013-05-05 08:52:00,59.0,39.0,29.72,East,90,9.0,18.0,47,0.00,,,0.00,,2013-05-05 12:52:00,
2013-05-05 09:01:00,59.0,39.0,29.72,SE,135,2.0,16.0,47,0.00,,,0.00,,2013-05-05 13:01:00,
2013-05-05 09:11:00,59.0,39.0,29.72,SE,135,2.0,16.0,47,0.00,,,0.00,,2013-05-05 13:11:00,
2013-05-05 09:21:00,61.0,40.0,29.72,ESE,112,4.0,17.0,46,0.00,,,0.00,,2013-05-05 13:21:00,
2013-05-05 09:32:00,61.0,37.0,29.72,SSE,157,12.0,15.0,41,0.00,,,0.00,,2013-05-05 13:32:00,
2013-05-05 09:42:00,61.0,37.0,29.72,SSE,157,12.0,15.0,41,0.00,,,0.00,,2013-05-05 13:42:00,
2013-05-05 09:52:00,62.0,36.0,29.72,ESE,112,10.0,16.0,38,0.00,,,0.00,,2013-05-05 13:52:00,
2013-05-05 10:02:00,63.0,36.0,29.72,East,90,5.0,15.0,37,0.00,,,0.00,,2013-05-05 14:02:00,
2013-05-05 10:11:00,63.0,36.0,29.72,East,90,5.0,15.0,37,0.00,,,0.00,,2013-05-05 14:11:00,
2013-05-05 10:21:00,64.0,38.0,29.72,East,90,7.0,12.0,38,0.00,,,0.00,,2013-05-05 14:21:00,
2013-05-05 10:32:00,65.0,38.0,29.72,ESE,112,8.0,15.0,37,0.00,,,0.00,,2013-05-05 14:32:00,
2013-05-05 10:42:00,65.0,38.0,29.72,ESE,112,8.0,15.0,37,0.00,,,0.00,,2013-05-05 14:42:00,
2013-05-05 10:52:00,65.0,35.0,29.72,ESE,112,8.0,15.0,33,0.00,,,0.00,,2013-05-05 14:52:00,
2013-05-05 11:02:00,67.0,38.0,29.72,SW,225,2.0,8.0,35,0.00,,,0.00,,2013-05-05 15:02:00,
2013-05-05 11:11:00,67.0,38.0,29.72,SW,225,2.0,8.0,35,0.00,,,0.00,,2013-05-05 15:11:00,
2013-05-05 11:21:00,68.0,39.0,29.72,NNW,337,2.0,13.0,34,0.00,,,0.00,,2013-05-05 15:21:00,
2013-05-05 11:33:00,69.0,39.0,29.72,SSW,202,6.0,13.0,33,0.00,,,0.00,,2013-05-05 15:33:00,
2013-05-05 11:43:00,69.0,39.0,29.72,SSW,202,6.0,13.0,33,0.00,,,0.00,,2013-05-05 15:43:00,
2013-05-05 11:53:00,70.0,38.0,29.72,South,180,8.0,15.0,31,0.00,,,0.00,,2013-05-05 15:53:00,
2013-05-05 12:03:00,70.0,38.0,29.71,SSE,157,6.0,10.0,31,0.00,,,0.00,,2013-05-05 16:03:00,
2013-05-05 12:12:00,70.0,38.0,29.71,SSE,157,6.0,10.0,31,0.00,,,0.00,,2013-05-05 16:12:00,
2013-05-05 12:23:00,71.0,36.0,29.71,SSE,157,5.0,10.0,28,0.00,,,0.00,,2013-05-05 16:23:00,
2013-05-05 12:32:00,71.0,37.0,29.71,SSW,202,7.0,16.0,29,0.00,,,0.00,,2013-05-05 16:32:00,
2013-05-05 12:42:00,71.0,37.0,29.71,SSW,202,7.0,16.0,29,0.00,,,0.00,,2013-05-05 16:42:00,
2013-05-05 12:52:00,72.0,38.0,29.70,SSW,202,4.0,9.0,29,0.00,,,0.00,,2013-05-05 16:52:00,
2013-05-05 13:02:00,73.0,39.0,29.69,WSW,247,7.0,10.0,29,0.00,,,0.00,,2013-05-05 17:02:00,
2013-05-05 13:12:00,73.0,39.0,29.69,WSW,247,7.0,10.0,29,0.00,,,0.00,,2013-05-05 17:12:00,
2013-05-05 13:23:00,74.0,39.0,29.69,SSW,202,3.0,12.0,28,0.00,,,0.00,,2013-05-05 17:23:00,
2013-05-05 13:32:00,74.0,40.0,29.67,SSW,202,5.0,10.0,29,0.00,,,0.00,,2013-05-05 17:32:00,
2013-05-05 13:42:00,74.0,40.0,29.67,SSW,202,5.0,10.0,29,0.00,,,0.00,,2013-05-05 17:42:00,
2013-05-05 13:52:00,75.0,39.0,29.67,South,180,9.0,13.0,27,0.00,,,0.00,,2013-05-05 17:52:00,
2013-05-05 14:01:00,75.0,38.0,29.67,SSW,202,9.0,13.0,26,0.00,,,0.00,,2013-05-05 18:01:00,
2013-05-05 14:12:00,75.0,38.0,29.67,SSW,202,9.0,13.0,26,0.00,,,0.00,,2013-05-05 18:12:00,
2013-05-05 14:21:00,75.0,38.0,29.67,SSW,202,4.0,13.0,26,0.00,,,0.00,,2013-05-05 18:21:00,
2013-05-05 14:32:00,76.0,37.0,29.67,West,270,2.0,9.0,24,0.00,,,0.00,,2013-05-05 18:32:00,
2013-05-05 14:42:00,76.0,37.0,29.67,West,270,2.0,9.0,24,0.00,,,0.00,,2013-05-05 18:42:00,
2013-05-05 14:52:00,76.0,36.0,29.67,WSW,247,6.0,10.0,23,0.00,,,0.00,,2013-05-05 18:52:00,
2013-05-05 15:01:00,77.0,37.0,29.66,West,270,7.0,11.0,24,0.00,,,0.00,,2013-05-05 19:01:00,
2013-05-05 15:11:00,77.0,37.0,29.66,West,270,7.0,11.0,24,0.00,,,0.00,,2013-05-05 19:11:00,
2013-05-05 15:21:00,77.0,36.0,29.66,NW,315,7.0,11.0,23,0.00,,,0.00,,2013-05-05 19:21:00,
2013-05-05 15:32:00,78.0,37.0,29.65,West,270,2.0,11.0,23,0.00,,,0.00,,2013-05-05 19:32:00,
2013-05-05 15:42:00,78.0,37.0,29.65,West,270,2.0,11.0,23,0.00,,,0.00,,2013-05-05 19:42:00,
2013-05-05 15:52:00,78.0,36.0,29.65,NNW,337,1.0,6.0,22,0.00,,,0.00,,2013-05-05 19:52:00,
2013-05-05 16:01:00,79.0,42.0,29.65,South,180,6.0,10.0,27,0.00,,,0.00,,2013-05-05 20:01:00,
2013-05-05 16:11:00,79.0,42.0,29.65,South,180,6.0,10.0,27,0.00,,,0.00,,2013-05-05 20:11:00,
2013-05-05 16:21:00,79.0,37.0,29.65,NNE,22,3.0,7.0,22,0.00,,,0.00,,2013-05-05 20:21:00,
2013-05-05 16:32:00,80.0,38.0,29.65,NW,315,3.0,7.0,22,0.00,,,0.00,,2013-05-05 20:32:00,
2013-05-05 16:42:00,80.0,38.0,29.65,NW,315,3.0,7.0,22,0.00,,,0.00,,2013-05-05 20:42:00,
2013-05-05 16:52:00,81.0,39.0,29.64,North,360,3.0,7.0,22,0.00,,,0.00,,2013-05-05 20:52:00,
2013-05-05 17:02:00,79.0,36.0,29.64,WSW,247,2.0,11.0,21,0.00,,,0.00,,2013-05-05 21:02:00,
2013-05-05 17:11:00,79.0,36.0,29.64,WSW,247,2.0,11.0,21,0.00,,,0.00,,2013-05-05 21:11:00,
2013-05-05 17:21:00,79.0,37.0,29.64,SSE,157,0.0,8.0,22,0.00,,,0.00,,2013-05-05 21:21:00,
2013-05-05 17:33:00,80.0,38.0,29.63,SSW,202,0.0,6.0,22,0.00,,,0.00,,2013-05-05 21:33:00,
2013-05-05 17:42:00,80.0,38.0,29.63,SSW,202,0.0,6.0,22,0.00,,,0.00,,2013-05-05 21:42:00,
2013-05-05 17:53:00,80.0,42.0,29.63,SSW,202,2.0,5.0,26,0.00,,,0.00,,2013-05-05 21:53:00,
2013-05-05 18:02:00,80.0,38.0,29.63,ENE,67,3.0,7.0,22,0.00,,,0.00,,2013-05-05 22:02:00,
2013-05-05 18:12:00,80.0,38.0,29.63,ENE,67,3.0,7.0,22,0.00,,,0.00,,2013-05-05 22:12:00,
2013-05-05 18:22:00,79.0,34.0,29.63,East,90,3.0,8.0,20,0.00,,,0.00,,2013-05-05 22:22:00,
2013-05-05 18:33:00,79.0,37.0,29.63,SSE,157,1.0,5.0,22,0.00,,,0.00,,2013-05-05 22:33:00,
2013-05-05 18:42:00,79.0,37.0,29.63,SSE,157,1.0,5.0,22,0.00,,,0.00,,2013-05-05 22:42:00,
2013-05-05 18:52:00,79.0,36.0,29.63,ESE,112,5.0,7.0,21,0.00,,,0.00,,2013-05-05 22:52:00,
2013-05-05 19:02:00,78.0,37.0,29.63,SSW,202,2.0,8.0,23,0.00,,,0.00,,2013-05-05 23:02:00,
2013-05-05 19:12:00,78.0,37.0,29.63,SSW,202,2.0,8.0,23,0.00,,,0.00,,2013-05-05 23:12:00,
2013-05-05 19:21:00,78.0,37.0,29.63,ESE,112,4.0,7.0,23,0.00,,,0.00,,2013-05-05 23:21:00,
2013-05-05 19:32:00,77.0,36.0,29.63,South,180,5.0,10.0,23,0.00,,,0.00,,2013-05-05 23:32:00,
2013-05-05 19:42:00,77.0,36.0,29.63,South,180,5.0,10.0,23,0.00,,,0.00,,2013-05-05 23:42:00,
2013-05-05 19:52:00,75.0,35.0,29.63,SSW,202,5.0,9.0,23,0.00,,,0.00,,2013-05-05 23:52:00,
2013-05-05 20:01:00,74.0,34.0,29.63,SSW,202,2.0,9.0,23,0.00,,,0.00,,2013-05-06 00:01:00,
2013-05-05 20:11:00,74.0,34.0,29.63,SSW,202,2.0,9.0,23,0.00,,,0.00,,2013-05-06 00:11:00,
2013-05-05 20:21:00,72.0,32.0,29.63,SSW,202,6.0,10.0,23,0.00,,,0.00,,2013-05-06 00:21:00,
2013-05-05 20:32:00,71.0,31.0,29.63,SSE,157,6.0,10.0,23,0.00,,,0.00,,2013-05-06 00:32:00,
2013-05-05 20:41:00,71.0,31.0,29.63,SSE,157,6.0,10.0,23,0.00,,,0.00,,2013-05-06 00:41:00,
2013-05-05 20:52:00,70.0,32.0,29.63,South,180,3.0,9.0,24,0.00,,,0.00,,2013-05-06 00:52:00,
2013-05-05 21:01:00,70.0,32.0,29.64,ESE,112,3.0,8.0,24,0.00,,,0.00,,2013-05-06 01:01:00,
2013-05-05 21:11:00,70.0,32.0,29.64,ESE,112,3.0,8.0,24,0.00,,,0.00,,2013-05-06 01:11:00,
2013-05-05 21:21:00,69.0,31.0,29.64,ENE,67,1.0,8.0,24,0.00,,,0.00,,2013-05-06 01:21:00,
2013-05-05 21:32:00,68.0,30.0,29.65,NNE,22,0.0,4.0,24,0.00,,,0.00,,2013-05-06 01:32:00,
2013-05-05 21:42:00,68.0,30.0,29.65,NNE,22,0.0,4.0,24,0.00,,,0.00,,2013-05-06 01:42:00,
2013-05-05 21:52:00,68.0,30.0,29.65,SSW,202,7.0,13.0,24,0.00,,,0.00,,2013-05-06 01:52:00,
2013-05-05 22:02:00,68.0,30.0,29.65,ESE,112,7.0,10.0,24,0.00,,,0.00,,2013-05-06 02:02:00,
2013-05-05 22:12:00,68.0,30.0,29.65,ESE,112,7.0,10.0,24,0.00,,,0.00,,2013-05-06 02:12:00,
2013-05-05 22:21:00,68.0,29.0,29.65,ENE,67,5.0,12.0,23,0.00,,,0.00,,2013-05-06 02:21:00,
2013-05-05 22:32:00,67.0,29.0,29.65,South,180,7.0,12.0,24,0.00,,,0.00,,2013-05-06 02:32:00,
2013-05-05 22:42:00,67.0,29.0,29.65,South,180,7.0,12.0,24,0.00,,,0.00,,2013-05-06 02:42:00,
2013-05-05 22:51:00,67.0,28.0,29.65,South,180,10.0,15.0,23,0.00,,,0.00,,2013-05-06 02:51:00,
2013-05-05 23:02:00,66.0,27.0,29.65,SSE,157,10.0,15.0,23,0.00,,,0.00,,2013-05-06 03:02:00,
2013-05-05 23:11:00,66.0,27.0,29.65,SSE,157,10.0,15.0,23,0.00,,,0.00,,2013-05-06 03:11:00,
2013-05-05 23:22:00,66.0,27.0,29.65,SSE,157,8.0,14.0,23,0.00,,,0.00,,2013-05-06 03:22:00,
2013-05-05 23:33:00,66.0,27.0,29.66,SE,135,9.0,14.0,23,0.00,,,0.00,,2013-05-06 03:33:00,
2013-05-05 23:42:00,66.0,27.0,29.66,SE,135,9.0,14.0,23,0.00,,,0.00,,2013-05-06 03:42:00,
2013-05-05 23:53:00,66.0,27.0,29.66,ESE,112,8.0,13.0,23,0.00,,,0.00,,2013-05-06 03:53:00,